Weather Service Report


553 
ASUS45 KBOU 042307
RWRCO 

WEATHER ROUNDUP FOR COLORADO
NATIONAL WEATHER SERVICE DENVER/BOULDER CO
500 PM MDT FRI SEP 04 2015

NOTE: "FAIR" INDICATES FEW OR NO CLOUDS BELOW 12000 FEET WITH NO
SIGNIFICANT WEATHER AND/OR OBSTRUCTIONS TO VISIBILITY.

COZ001>005-013-030-031-050000-
...NORTHWEST COLORADO...
  
CITY           SKY/WX    TMP DP  RH WIND       PRES   REMARKS
CRAIG          PTSUNNY   78  42  27 W9G20     30.03S                  
HAYDEN         PTSUNNY   70  43  37 SE22      30.05F                  
MEEKER         PTSUNNY   71  46  40 SE5       30.05F                  
MOUNT WERNER   NOT AVBL                                               
STEAMBOAT SPGS PTSUNNY   68  46  45 E13G18    30.10S                  
WALDEN         PTSUNNY   59  41  51 S13       30.20F                  
$$

COZ006>008-011-050000-
...WEST CENTRAL VALLEYS...
  
CITY           SKY/WX    TMP DP  RH WIND       PRES   REMARKS
GRAND JUNCTION CLOUDY    64  58  80 SE20      29.98F                  
MONTROSE       LGT RAIN  65  55  70 W10       30.09R                  
EAGLE          PTSUNNY   63  55  77 CALM      30.14F                  
RIFLE          PTSUNNY   70  53  54 NW7       30.02S                  
DELTA          RAIN      67  58  73 NW5       30.05R                  
NUCLA          CLOUDY    66  55  68 E8        30.10F                  
$$

COZ017>023-064>068-050000-
...SOUTHWEST COLORADO...
  
CITY           SKY/WX    TMP DP  RH WIND       PRES   REMARKS
DURANGO        LGT RAIN  60  55  83 CALM      30.16R                  
CORTEZ         CLOUDY    74  49  41 SW13      30.06R                  
PAGOSA SPRINGS CLOUDY    66  46  47 E6        30.21S                  
TELLURIDE      LGT RAIN  55  51  85 CALM      30.28R                  
WOLF CREEK PAS NOT AVBL                                               
$$

COZ009-010-012-014-032>034-037-058>063-050000-
...CENTRAL COLORADO...
  
CITY           SKY/WX    TMP DP  RH WIND       PRES   REMARKS
ASPEN          CLOUDY    58  51  78 NE5       30.18R                  
BUENA VISTA    CLOUDY    67  42  40 E3        30.18F                  
COPPER MTN     DRIZZLE   48  41  76 SE5       30.45F                  
BERTHOUD PASS  CLOUDY    37  27  65 SE6       30.52S                  
COTTONWOOD PAS CLOUDY    61  45  55 CALM      30.31S                  
GUNNISON       PTSUNNY   64  48  55 N8        30.18F                  
KREMMLING      CLOUDY    59  50  72 E6        30.20S                  
LEADVILLE      CLOUDY    51  47  86 W5        30.31F                  
MONARCH PASS   PTSUNNY   52  41  66 S18G24    30.56S                  
SALIDA         CLOUDY    71  46  39 NE6       30.22S                  
SUNLIGHT       CLOUDY    55  46  71 SE3       30.38F                  
WILKERSON PASS CLOUDY    46  45  93 CALM      30.45F                  
$$

COZ069>075-050000-
...SAN LUIS VALLEY/SANGRE DE CRISTO MOUNTAINS...
  
CITY           SKY/WX    TMP DP  RH WIND       PRES   REMARKS
ALAMOSA        CLOUDY    70  44  39 S22G30    30.16R                  
LA VETA PASS   CLOUDY    57  41  54 MISG      30.35S                  
SAGUACHE       PTSUNNY   68  48  49 SE6       30.19S                  
$$

COZ035-036-038>040-050000-
...NORTHERN COLORADO FRONT RANGE...
  
CITY           SKY/WX    TMP DP  RH WIND       PRES   REMARKS
DENVER INTL AP CLOUDY    84  35  17 SW12      29.95S                  
DMNS CITY PARK   N/A     80  41  24 W12G20    29.96R                  
AURORA         PTSUNNY   83  42  23 SW8       29.97S                  
FRONT RANGE AP PTSUNNY   84  36  17 S12       29.97S                  
ERIE MUNI ARPT LGT RAIN  78  43  28 W13G25    29.96R                  
BOULDER MUN AP LGT RAIN  77  43  29 SW15G22   29.98R                  
CENTENNIAL     CLOUDY    80  40  23 W12       29.99R                  
BROOMFIELD     PTSUNNY   75  46  35 W17       30.00R                  
FORT COLLINS   CLOUDY    81  45  28 W12G17    29.93S                  
LONGMONT       CLOUDY    80  44  27 W14G22    29.97S                  
$$

COZ041-046-047-076>085-087-088-050000-
...PIKES PEAK/PALMER DIVIDE AND SOUTHERN FOOTHILLS...
  
CITY           SKY/WX    TMP DP  RH WIND       PRES   REMARKS
COLO. SPRINGS  PTSUNNY   82  41  23 SE14      30.04S                  
A. F. ACADEMY  CLOUDY    80  41  25 S15       30.05S                  
ELLICOTT       PTSUNNY  N/A N/A N/A S12       30.02F                  
FALCON         PTSUNNY   77  41  27 S12G17    30.10S                  
FORT CARSON    PTSUNNY   80  46  29 SE9       30.00F                  
LIMON          MOSUNNY   86  41  20 S14G24    29.97S                  
MONUMENT HILL  PTSUNNY   75  37  25 S13G25    30.10S                  
TRINIDAD       PTSUNNY   83  45  26 S17G24    30.01S                  
$$

COZ042>045-048>051-090-091-050000-
...NORTHEAST COLORADO...
  
CITY           SKY/WX    TMP DP  RH WIND       PRES   REMARKS
GREELEY ARPT   CLOUDY    82  46  28 SE8       29.93R                  
AKRON          MOSUNNY   88  40  18 SE15      29.91F                  
BURLINGTON     MOSUNNY   90  43  19 S15G23    29.91S                  
WRAY           CLOUDY    97  38  13 S9        29.86S                  
STERLING       MOSUNNY   91  43  18 CALM      29.85F                  
HOLYOKE        MOSUNNY   88  46  23 SE9       29.87S                  
FORT MORGAN    MOSUNNY   89  37  15 NE9       29.90F                  
$$

COZ086-089-092>099-050000-
...SOUTHEAST COLORADO...
  
CITY           SKY/WX    TMP DP  RH WIND       PRES   REMARKS
PUEBLO         CLOUDY    87  48  25 SW5       29.90F                  
LA JUNTA       PTSUNNY   93  45  19 S8        29.87S                  
LAMAR          MOSUNNY   92  50  23 SE10      29.83F                  
SPRINGFIELD      N/A     92  44  19 SW18G28   29.91F                  
$$
  

Return to Home page


Western Regional Climate Center, wrcc@dri.edu